| time (UTC) | temp F | wind direction | speed MPH | gust MPH | rain 1hr in | rain 24hr in | rain mn in | humidity % | barometer mb |
| 20260904094548 | 69 | 85 | 5.0 | 12.0 | 0.00 | 0.00 | 0.00 | 96 | 1011.5 |
| 20260904094543 | 69 | 112 | 5.0 | 10.0 | 0.00 | 0.00 | 0.00 | 95 | 1020.9 |
| 20260904093051 | 69 | 194 | 5.0 | 12.0 | 0.00 | 0.00 | 0.00 | 95 | 1020.9 |
| 20260904093033 | 69 | 194 | 3.0 | 12.0 | 0.00 | 0.00 | 0.00 | 95 | 1011.4 |
| 20260904091550 | 69 | 221 | 4.0 | 10.0 | 0.00 | 0.00 | 0.00 | 95 | 1020.7 |
| 20260904091531 | 69 | 221 | 2.0 | 10.0 | 0.00 | 0.00 | 0.00 | 95 | 1011.2 |
| 20260904090047 | 69 | 130 | 5.0 | 8.0 | 0.00 | 0.00 | 0.00 | 95 | 1020.9 |
| 20260904090029 | 69 | 138 | 6.0 | 8.0 | 0.00 | 0.00 | 0.00 | 96 | 1011.6 |
| 20260904084559 | 69 | 121 | 4.0 | 7.0 | 0.00 | 0.00 | 0.00 | 95 | 1020.8 |
| 20260904084529 | 69 | 121 | 4.0 | 7.0 | 0.00 | 0.00 | 0.00 | 96 | 1011.4 |
| 20260904083054 | 69 | 126 | 3.0 | 8.0 | 0.00 | 0.00 | 0.00 | 95 | 1020.7 |
| 20260904083028 | 69 | 126 | 1.0 | 8.0 | 0.00 | 0.00 | 0.00 | 96 | 1011.4 |
| 20260904081548 | 70 | 119 | 5.0 | 12.0 | 0.00 | 0.00 | 0.00 | 95 | 1020.6 |
| 20260904081527 | 70 | 127 | 7.0 | 12.0 | 0.00 | 0.00 | 0.00 | 96 | 1011.2 |
| 20260904080029 | 70 | 101 | 1.0 | 8.0 | 0.00 | 0.00 | 0.00 | 96 | 1010.9 |
| 20260904074544 | 70 | 88 | 1.0 | 9.0 | 0.00 | 0.00 | 0.00 | 96 | 1020.5 |
| 20260904074526 | 70 | 88 | 2.0 | 9.0 | 0.00 | 0.00 | 0.00 | 96 | 1011.1 |
| 20260904073050 | 69 | 128 | 3.0 | 8.0 | 0.00 | 0.00 | 0.00 | 95 | 1020.7 |
| 20260904073032 | 69 | 128 | 2.0 | 7.0 | 0.00 | 0.00 | 0.00 | 96 | 1011.2 |
| 20260904071550 | 70 | 0 | 2.0 | 12.0 | 0.00 | 0.00 | 0.00 | 95 | 1020.6 |
| 20260904071523 | 70 | 130 | 2.0 | 8.0 | 0.00 | 0.00 | 0.00 | 96 | 1011.2 |
| 20260904070121 | 70 | 109 | 4.0 | 12.0 | 0.00 | 0.00 | 0.00 | 96 | 1011.4 |
| 20260904070054 | 70 | 146 | 4.0 | 12.0 | 0.00 | 0.00 | 0.00 | 96 | 1020.9 |
| 20260904064543 | 70 | 117 | 5.0 | 11.0 | 0.00 | 0.00 | 0.00 | 96 | 1020.8 |
| 20260904064519 | 70 | 115 | 5.0 | 11.0 | 0.00 | 0.00 | 0.00 | 96 | 1011.5 |
| 20260904063109 | 70 | 0 | 2.0 | 8.0 | 0.00 | 0.00 | 0.00 | 95 | 1020.9 |
| 20260904063017 | 70 | 144 | 1.0 | 8.0 | 0.00 | 0.00 | 0.00 | 96 | 1011.5 |
| 20260904061549 | 70 | 129 | 2.0 | 6.0 | 0.00 | 0.00 | 0.00 | 95 | 1021.1 |
| 20260904061525 | 70 | 129 | 2.0 | 5.0 | 0.00 | 0.00 | 0.00 | 96 | 1011.8 |
| 20260904060050 | 70 | 144 | 2.0 | 9.0 | 0.00 | 0.00 | 0.00 | 95 | 1021.1 |
| 20260904060016 | 70 | 144 | 2.0 | 8.0 | 0.00 | 0.00 | 0.00 | 96 | 1011.7 |
| 20260904054548 | 70 | 101 | 2.0 | 7.0 | 0.00 | 0.00 | 0.00 | 95 | 1021.1 |
| 20260904054517 | 70 | 163 | 2.0 | 7.0 | 0.00 | 0.00 | 0.00 | 96 | 1011.7 |
| 20260904053056 | 70 | 154 | 3.0 | 7.0 | 0.00 | 0.00 | 0.00 | 95 | 1021.3 |
| 20260904053015 | 70 | 154 | 2.0 | 7.0 | 0.00 | 0.00 | 0.00 | 96 | 1012.0 |
| 20260904051549 | 70 | 0 | 1.0 | 7.0 | 0.00 | 0.00 | 0.00 | 95 | 1021.6 |
| 20260904051512 | 70 | 147 | 1.0 | 7.0 | 0.00 | 0.00 | 0.00 | 96 | 1012.3 |
| 20260904050043 | 70 | 145 | 1.0 | 8.0 | 0.00 | 0.00 | 0.00 | 95 | 1021.3 |
| 20260904050023 | 70 | 145 | 1.0 | 6.0 | 0.00 | 0.00 | 0.00 | 95 | 1012.0 |
| 20260904044549 | 70 | 147 | 1.0 | 9.0 | 0.00 | 0.00 | 0.00 | 95 | 1021.5 |
| 20260904044516 | 70 | 166 | 1.0 | 9.0 | 0.00 | 0.00 | 0.00 | 95 | 1012.0 |
| 20260904043056 | 70 | 146 | 3.0 | 10.0 | 0.00 | 0.00 | 0.00 | 94 | 1021.6 |
| 20260904043008 | 70 | 158 | 4.0 | 10.0 | 0.00 | 0.00 | 0.00 | 95 | 1012.2 |
| 20260904041545 | 70 | 156 | 4.0 | 11.0 | 0.00 | 0.00 | 0.00 | 94 | 1021.9 |
| 20260904041507 | 70 | 171 | 4.0 | 9.0 | 0.00 | 0.00 | 0.00 | 95 | 1012.5 |
| 20260904040042 | 70 | 151 | 5.0 | 11.0 | 0.00 | 0.00 | 0.00 | 94 | 1022.0 |
| 20260904040006 | 70 | 161 | 5.0 | 11.0 | 0.00 | 0.00 | 0.00 | 95 | 1012.7 |
| 20260904034550 | 70 | 155 | 6.0 | 14.0 | 0.00 | 0.00 | 0.00 | 94 | 1022.3 |
| 20260904034506 | 71 | 163 | 5.0 | 14.0 | 0.00 | 0.00 | 0.00 | 95 | 1013.1 |
| 20260904033048 | 71 | 150 | 5.0 | 14.0 | 0.00 | 0.00 | 0.00 | 94 | 1022.3 |
| 20260904033006 | 71 | 157 | 5.0 | 12.0 | 0.00 | 0.00 | 0.00 | 95 | 1012.9 |
| 20260904031546 | 71 | 148 | 4.0 | 12.0 | 0.00 | 0.00 | 0.00 | 94 | 1022.3 |
| 20260904031505 | 71 | 138 | 6.0 | 12.0 | 0.00 | 0.00 | 0.00 | 95 | 1012.9 |
| 20260904030055 | 71 | 154 | 4.0 | 11.0 | 0.00 | 0.00 | 0.00 | 94 | 1022.3 |
| 20260904030042 | 71 | 135 | 3.0 | 11.0 | 0.00 | 0.00 | 0.00 | 95 | 1013.1 |
| 20260904024550 | 70 | 132 | 3.0 | 9.0 | 0.00 | 0.00 | 0.00 | 94 | 1022.1 |
| 20260904024541 | 70 | 132 | 3.0 | 9.0 | 0.00 | 0.00 | 0.00 | 95 | 1012.6 |
| 20260904023051 | 70 | 154 | 1.0 | 5.0 | 0.00 | 0.00 | 0.00 | 95 | 1012.8 |
| 20260904023048 | 70 | 154 | 1.0 | 5.0 | 0.00 | 0.00 | 0.00 | 94 | 1022.0 |
| 20260904021555 | 70 | 161 | 0.0 | 8.0 | 0.00 | 0.00 | 0.00 | 94 | 1021.8 |
| 20260904021540 | 70 | 161 | 0.0 | 6.0 | 0.00 | 0.00 | 0.00 | 95 | 1012.5 |
| 20260904020049 | 70 | 0 | 1.0 | 6.0 | 0.00 | 0.00 | 0.00 | 94 | 1021.9 |
| 20260904020041 | 70 | 125 | 1.0 | 6.0 | 0.00 | 0.00 | 0.00 | 95 | 1012.7 |
| 20260904014556 | 70 | 113 | 1.0 | 5.0 | 0.00 | 0.00 | 0.00 | 94 | 1022.0 |
| 20260904014540 | 70 | 149 | 2.0 | 8.0 | 0.00 | 0.00 | 0.00 | 94 | 1012.8 |
| 20260904013058 | 70 | 0 | 0.0 | 4.0 | 0.00 | 0.00 | 0.00 | 93 | 1022.2 |
| 20260904013040 | 70 | 112 | 0.0 | 4.0 | 0.00 | 0.00 | 0.00 | 93 | 1013.0 |
| 20260904011623 | 70 | 87 | 1.0 | 6.0 | 0.00 | 0.00 | 0.00 | 92 | 1022.0 |
| 20260904011538 | 70 | 91 | 2.0 | 7.0 | 0.00 | 0.00 | 0.00 | 92 | 1012.8 |
| 20260904010049 | 70 | 0 | 0.0 | 5.0 | 0.00 | 0.00 | 0.00 | 91 | 1022.4 |
| 20260904010038 | 70 | 132 | 0.0 | 3.0 | 0.00 | 0.00 | 0.00 | 92 | 1013.0 |
| 20260904004553 | 70 | 152 | 4.0 | 7.0 | 0.00 | 0.00 | 0.00 | 90 | 1021.9 |
| 20260904004539 | 71 | 160 | 3.0 | 7.0 | 0.00 | 0.00 | 0.00 | 91 | 1012.5 |
| 20260904003050 | 71 | 0 | 1.0 | 7.0 | 0.00 | 0.00 | 0.00 | 90 | 1022.1 |
| 20260904003039 | 71 | 128 | 0.0 | 6.0 | 0.00 | 0.00 | 0.00 | 90 | 1012.8 |
| 20260904001547 | 71 | 164 | 4.0 | 9.0 | 0.00 | 0.00 | 0.00 | 88 | 1022.5 |
| 20260904001538 | 71 | 164 | 4.0 | 8.0 | 0.00 | 0.00 | 0.00 | 89 | 1013.3 |
| 20260904000055 | 72 | 160 | 2.0 | 7.0 | 0.00 | 0.00 | 0.00 | 87 | 1013.0 |
| 20260904000048 | 71 | 0 | 3.0 | 7.0 | 0.00 | 0.00 | 0.00 | 87 | 1022.4 |
| 20260903234544 | 72 | 162 | 1.0 | 6.0 | 0.00 | 0.00 | 0.00 | 86 | 1021.9 |
| 20260903234536 | 72 | 162 | 1.0 | 5.0 | 0.00 | 0.00 | 0.00 | 87 | 1012.6 |
| 20260903233051 | 72 | 148 | 1.0 | 7.0 | 0.00 | 0.00 | 0.00 | 87 | 1021.5 |
| 20260903233046 | 72 | 148 | 1.0 | 4.0 | 0.00 | 0.00 | 0.00 | 87 | 1012.2 |
| 20260903231549 | 73 | 149 | 1.0 | 5.0 | 0.00 | 0.00 | 0.00 | 89 | 1021.9 |
| 20260903231536 | 73 | 149 | 2.0 | 5.0 | 0.00 | 0.00 | 0.00 | 89 | 1012.5 |
| 20260903230045 | 73 | 154 | 0.0 | 5.0 | 0.00 | 0.00 | 0.00 | 90 | 1022.3 |
| 20260903230038 | 73 | 154 | 0.0 | 5.0 | 0.00 | 0.00 | 0.00 | 91 | 1013.0 |
| 20260903224550 | 73 | 0 | 0.0 | 6.0 | 0.00 | 0.00 | 0.00 | 90 | 1022.3 |
| 20260903224542 | 73 | 148 | 0.0 | 6.0 | 0.00 | 0.00 | 0.00 | 90 | 1012.8 |
| 20260903223056 | 73 | 187 | 3.0 | 9.0 | 0.00 | 0.00 | 0.00 | 89 | 1012.8 |
| 20260903223047 | 73 | 187 | 3.0 | 9.0 | 0.00 | 0.00 | 0.00 | 88 | 1022.2 |
| 20260903221544 | 74 | 167 | 3.0 | 5.0 | 0.00 | 0.00 | 0.00 | 85 | 1022.2 |
| 20260903221534 | 74 | 167 | 2.0 | 5.0 | 0.00 | 0.00 | 0.00 | 86 | 1012.8 |
| 20260903220052 | 75 | 164 | 1.0 | 4.0 | 0.00 | 0.00 | 0.00 | 83 | 1022.1 |
| 20260903220037 | 75 | 164 | 1.0 | 3.0 | 0.00 | 0.00 | 0.00 | 84 | 1012.8 |
| 20260903214600 | 75 | 0 | 0.0 | 5.0 | 0.00 | 0.00 | 0.00 | 81 | 1021.8 |
| 20260903214534 | 75 | 163 | 0.0 | 3.0 | 0.00 | 0.00 | 0.00 | 81 | 1012.4 |
| 20260903213046 | 76 | 166 | 1.0 | 5.0 | 0.00 | 0.00 | 0.00 | 80 | 1021.4 |
| 20260903211555 | 76 | 167 | 0.0 | 5.0 | 0.00 | 0.00 | 0.00 | 78 | 1021.6 |
| 20260903211531 | 76 | 167 | 0.0 | 5.0 | 0.00 | 0.00 | 0.00 | 78 | 1012.2 |
| 20260903210110 | 77 | 118 | 1.0 | 6.0 | 0.00 | 0.00 | 0.00 | 77 | 1021.3 |
| 20260903210035 | 77 | 118 | 1.0 | 6.0 | 0.00 | 0.00 | 0.00 | 78 | 1012.0 |
| 20260903204601 | 78 | 169 | 2.0 | 10.0 | 0.00 | 0.00 | 0.00 | 76 | 1021.9 |
| 20260903204528 | 78 | 169 | 2.0 | 9.0 | 0.00 | 0.00 | 0.00 | 76 | 1012.4 |
| 20260903203045 | 77 | 144 | 2.0 | 8.0 | 0.00 | 0.00 | 0.00 | 82 | 1021.6 |
| 20260903203031 | 77 | 144 | 1.0 | 8.0 | 0.00 | 0.00 | 0.00 | 83 | 1012.3 |
| 20260903201554 | 76 | 161 | 2.0 | 6.0 | 0.00 | 0.00 | 0.00 | 83 | 1021.8 |
| 20260903201525 | 76 | 161 | 1.0 | 6.0 | 0.00 | 0.00 | 0.00 | 83 | 1012.5 |
| 20260903200051 | 76 | 159 | 2.0 | 10.0 | 0.00 | 0.00 | 0.00 | 83 | 1022.2 |
| 20260903200023 | 76 | 159 | 1.0 | 9.0 | 0.00 | 0.00 | 0.00 | 83 | 1012.8 |
| 20260903194540 | 76 | 173 | 5.0 | 9.0 | 0.00 | 0.00 | 0.00 | 83 | 1022.7 |
| 20260903194535 | 76 | 173 | 5.0 | 8.0 | 0.00 | 0.00 | 0.00 | 83 | 1013.2 |
| 20260903193046 | 76 | 182 | 3.0 | 8.0 | 0.00 | 0.00 | 0.00 | 82 | 1022.9 |
| 20260903193023 | 76 | 182 | 3.0 | 8.0 | 0.00 | 0.00 | 0.00 | 83 | 1013.4 |
| 20260903191543 | 76 | 183 | 0.0 | 7.0 | 0.00 | 0.00 | 0.00 | 82 | 1022.5 |
| 20260903191522 | 76 | 183 | 0.0 | 6.0 | 0.00 | 0.00 | 0.00 | 82 | 1013.0 |
| 20260903190053 | 76 | 184 | 4.0 | 10.0 | 0.00 | 0.00 | 0.00 | 82 | 1022.7 |
| 20260903190020 | 76 | 182 | 5.0 | 9.0 | 0.00 | 0.00 | 0.00 | 82 | 1013.3 |
| 20260903184554 | 77 | 188 | 3.0 | 8.0 | 0.00 | 0.00 | 0.00 | 79 | 1022.5 |
| 20260903184520 | 77 | 188 | 3.0 | 8.0 | 0.00 | 0.00 | 0.00 | 79 | 1013.0 |
| 20260903183056 | 77 | 167 | 1.0 | 6.0 | 0.00 | 0.00 | 0.00 | 79 | 1022.1 |
| 20260903183020 | 77 | 167 | 1.0 | 6.0 | 0.00 | 0.00 | 0.00 | 79 | 1012.7 |
| 20260903181549 | 77 | 0 | 1.0 | 3.0 | 0.00 | 0.00 | 0.00 | 80 | 1022.3 |
| 20260903181519 | 77 | 112 | 1.0 | 3.0 | 0.00 | 0.00 | 0.00 | 81 | 1012.9 |
| 20260903180047 | 77 | 0 | 0.0 | 3.0 | 0.00 | 0.00 | 0.00 | 79 | 1022.3 |
| 20260903180019 | 77 | 107 | 0.0 | 3.0 | 0.00 | 0.00 | 0.00 | 79 | 1012.8 |
| 20260903174544 | 77 | 0 | 1.0 | 3.0 | 0.00 | 0.00 | 0.00 | 77 | 1022.5 |
| 20260903174518 | 77 | 107 | 1.0 | 3.0 | 0.00 | 0.00 | 0.00 | 78 | 1013.0 |
| 20260903173050 | 77 | 0 | 0.0 | 3.0 | 0.00 | 0.00 | 0.00 | 77 | 1022.5 |
| 20260903173017 | 77 | 98 | 0.0 | 3.0 | 0.00 | 0.00 | 0.00 | 77 | 1013.0 |
| 20260903171604 | 77 | 98 | 1.0 | 7.0 | 0.00 | 0.00 | 0.00 | 76 | 1022.3 |
| 20260903171523 | 77 | 98 | 1.0 | 7.0 | 0.00 | 0.00 | 0.00 | 76 | 1012.9 |
| 20260903170052 | 78 | 16 | 2.0 | 8.0 | 0.00 | 0.00 | 0.00 | 78 | 1022.4 |
| 20260903170016 | 78 | 41 | 2.0 | 8.0 | 0.00 | 0.00 | 0.00 | 79 | 1013.1 |
| 20260903164550 | 76 | 66 | 3.0 | 7.0 | 0.00 | 0.00 | 0.00 | 79 | 1022.5 |
| 20260903164512 | 76 | 61 | 3.0 | 7.0 | 0.00 | 0.00 | 0.00 | 80 | 1013.2 |
| 20260903163050 | 75 | 109 | 2.0 | 8.0 | 0.00 | 0.00 | 0.00 | 81 | 1022.8 |
| 20260903163013 | 75 | 111 | 2.0 | 6.0 | 0.00 | 0.00 | 0.00 | 82 | 1013.4 |
| 20260903161548 | 74 | 51 | 2.0 | 5.0 | 0.00 | 0.00 | 0.00 | 88 | 1022.9 |
| 20260903161509 | 73 | 51 | 2.0 | 5.0 | 0.00 | 0.00 | 0.00 | 87 | 1013.5 |
| 20260903160101 | 72 | 48 | 1.0 | 8.0 | 0.00 | 0.00 | 0.00 | 89 | 1013.6 |
| 20260903160047 | 72 | 0 | 1.0 | 8.0 | 0.00 | 0.00 | 0.00 | 88 | 1022.9 |
| 20260903154559 | 71 | 69 | 1.0 | 7.0 | 0.00 | 0.00 | 0.00 | 90 | 1013.7 |
| 20260903154550 | 71 | 68 | 1.0 | 7.0 | 0.00 | 0.00 | 0.00 | 91 | 1023.1 |
| 20260903153054 | 68 | 82 | 1.0 | 4.0 | 0.00 | 0.00 | 0.00 | 95 | 1013.7 |
| 20260903153051 | 68 | 84 | 1.0 | 4.0 | 0.00 | 0.00 | 0.00 | 95 | 1023.0 |
| 20260903151604 | 67 | 117 | 0.0 | 2.0 | 0.00 | 0.00 | 0.00 | 94 | 1023.2 |
| 20260903151551 | 67 | 117 | 0.0 | 2.0 | 0.00 | 0.00 | 0.00 | 95 | 1013.9 |
| 20260903150059 | 67 | 174 | 1.0 | 3.0 | 0.00 | 0.00 | 0.00 | 94 | 1013.8 |
| 20260903150051 | 67 | 0 | 0.0 | 3.0 | 0.00 | 0.00 | 0.00 | 93 | 1023.2 |
| 20260903144552 | 67 | 175 | 0.0 | 3.0 | 0.00 | 0.00 | 0.00 | 94 | 1013.4 |
| 20260903144545 | 67 | 0 | 1.0 | 6.0 | 0.00 | 0.00 | 0.00 | 94 | 1022.8 |
| 20260903143054 | 66 | 162 | 2.0 | 7.0 | 0.00 | 0.00 | 0.00 | 94 | 1023.2 |
| 20260903143046 | 66 | 155 | 2.0 | 9.0 | 0.00 | 0.00 | 0.00 | 94 | 1013.9 |
| 20260903141550 | 66 | 148 | 7.0 | 14.0 | 0.00 | 0.00 | 0.00 | 93 | 1023.3 |
| 20260903141543 | 66 | 165 | 5.0 | 14.0 | 0.00 | 0.00 | 0.00 | 93 | 1013.9 |
| 20260903140104 | 67 | 165 | 2.0 | 6.0 | 0.00 | 0.00 | 0.00 | 92 | 1023.2 |
| 20260903140042 | 66 | 165 | 3.0 | 6.0 | 0.00 | 0.00 | 0.00 | 93 | 1013.9 |
| 20260903134549 | 66 | 113 | 0.0 | 4.0 | 0.00 | 0.00 | 0.00 | 92 | 1023.2 |
| 20260903134546 | 66 | 113 | 1.0 | 4.0 | 0.00 | 0.00 | 0.00 | 92 | 1013.9 |
| 20260903133047 | 66 | 0 | 0.0 | 3.0 | 0.00 | 0.00 | 0.00 | 91 | 1023.4 |
| 20260903133040 | 66 | 89 | 0.0 | 3.0 | 0.00 | 0.00 | 0.00 | 92 | 1014.0 |
| 20260903131544 | 66 | 0 | 0.0 | 3.0 | 0.00 | 0.00 | 0.00 | 91 | 1023.2 |
| 20260903130054 | 66 | 0 | 0.0 | 2.0 | 0.00 | 0.00 | 0.00 | 91 | 1023.3 |
| 20260903130043 | 66 | 88 | 0.0 | 2.0 | 0.00 | 0.00 | 0.00 | 91 | 1013.9 |
| 20260903124550 | 65 | 0 | 0.0 | 0.0 | 0.00 | 0.00 | 0.00 | 93 | 1022.9 |
| 20260903124532 | 65 | 88 | 0.0 | 0.0 | 0.00 | 0.00 | 0.00 | 94 | 1013.6 |
| 20260903123044 | 64 | 0 | 0.0 | 0.0 | 0.00 | 0.00 | 0.00 | 92 | 1022.6 |
| 20260903123040 | 64 | 88 | 0.0 | 0.0 | 0.00 | 0.00 | 0.00 | 93 | 1013.2 |
| 20260903121552 | 64 | 0 | 0.0 | 0.0 | 0.00 | 0.00 | 0.00 | 94 | 1022.4 |
| 20260903120059 | 63 | 0 | 0.0 | 0.0 | 0.00 | 0.00 | 0.00 | 94 | 1022.5 |
| 20260903120030 | 63 | 88 | 0.0 | 0.0 | 0.00 | 0.00 | 0.00 | 94 | 1013.1 |
| 20260903114549 | 63 | 0 | 0.0 | 0.0 | 0.00 | 0.00 | 0.00 | 94 | 1022.5 |
| 20260903114527 | 63 | 88 | 0.0 | 0.0 | 0.00 | 0.00 | 0.00 | 94 | 1013.0 |
| 20260903113049 | 62 | 0 | 0.0 | 0.0 | 0.00 | 0.00 | 0.00 | 94 | 1022.7 |
| 20260903113025 | 62 | 88 | 0.0 | 0.0 | 0.00 | 0.00 | 0.00 | 95 | 1013.3 |
| 20260903111542 | 62 | 0 | 0.0 | 0.0 | 0.00 | 0.00 | 0.00 | 95 | 1022.5 |
| 20260903111525 | 62 | 88 | 0.0 | 0.0 | 0.00 | 0.00 | 0.00 | 95 | 1013.1 |
| 20260903110048 | 62 | 0 | 0.0 | 0.0 | 0.00 | 0.00 | 0.00 | 94 | 1022.3 |
| 20260903110024 | 62 | 88 | 0.0 | 0.0 | 0.00 | 0.00 | 0.00 | 95 | 1013.0 |
| 20260903104544 | 62 | 0 | 0.0 | 0.0 | 0.00 | 0.04 | 0.00 | 95 | 1022.4 |
| 20260903104540 | 62 | 88 | 0.0 | 0.0 | 0.00 | 0.05 | 0.00 | 95 | 1013.0 |
| 20260903103044 | 62 | 0 | 0.0 | 0.0 | 0.00 | 0.04 | 0.00 | 94 | 1022.5 |
| 20260903103022 | 62 | 88 | 0.0 | 0.0 | 0.00 | 0.05 | 0.00 | 95 | 1013.1 |
| 20260903101557 | 61 | 0 | 0.0 | 0.0 | 0.00 | 0.04 | 0.00 | 95 | 1022.4 |
| 20260903101522 | 61 | 88 | 0.0 | 0.0 | 0.00 | 0.05 | 0.00 | 95 | 1013.1 |
| 20260903100052 | 61 | 0 | 0.0 | 0.0 | 0.00 | 0.04 | 0.00 | 94 | 1022.3 |
| 20260903100035 | 61 | 88 | 0.0 | 0.0 | 0.00 | 0.05 | 0.00 | 95 | 1013.0 |